CW5193 New Chelsea NF CA current weather conditions

sailwx.info

Wind from 271 at 8 knots gusting 18

Air temperature -0.0° C
Dewpoint -4.3° C

Last reported at 2014-Nov-22 02:40 UTC.
Time now 2014-Nov-22 03:05 UTC

Location: N 48°02' W 053°13'.
View on Google Maps.

See reports from other nearby stations

  
Tides and Currents Weather Stations Pressure Air Temp Water Temp Dewpoint Dewpoint Depression Visibility Wind Speed Wind Dir Waves Ship Positions
date/time (UTC)wind fromknots sea level pressurealtimeterstation pressurevisibilityair tempwater tempwave heightnotes
2014-Nov-22 02:40 271 8 gusting 18 -0.0
2014-Nov-22 02:30 264 9 gusting 19 -0.0
2014-Nov-22 02:10 249 13 gusting 23 -0.0
2014-Nov-22 02:00 222 12 gusting 25 -0.0
2014-Nov-22 01:50 268 14 gusting 25 0.6
2014-Nov-22 01:40 266 14 gusting 25 0.6
2014-Nov-22 01:30 268 19 gusting 27 0.6
2014-Nov-22 01:11 220 10 gusting 26 1.1
2014-Nov-22 01:00 248 11 gusting 19 1.1
2014-Nov-22 00:50 265 13 gusting 26 1.1
2014-Nov-22 00:41 243 15 gusting 23 1.1
2014-Nov-22 00:30 271 19 gusting 25 1.1
2014-Nov-22 00:20 281 15 gusting 27 1.1
2014-Nov-22 00:11 260 16 gusting 23 1.1
2014-Nov-22 00:00 265 13 gusting 26 1.1
2014-Nov-21 23:50 249 13 gusting 22 1.7
2014-Nov-21 23:41 250 13 gusting 26 1.7
2014-Nov-21 23:30 236 18 gusting 25 1.7
2014-Nov-21 23:10 261 11 gusting 25 1.7
2014-Nov-21 23:00 252 9 gusting 19 2.2
2014-Nov-21 22:50 265 12 gusting 19 2.2
2014-Nov-21 22:40 288 8 gusting 15 2.2
2014-Nov-21 22:30 280 7 gusting 19 2.2
2014-Nov-21 22:20 225 9 gusting 27 2.2
2014-Nov-21 22:10 246 13 gusting 24 2.8
2014-Nov-21 22:00 260 14 gusting 21 2.8
2014-Nov-21 21:50 277 9 gusting 28 2.8
2014-Nov-21 21:40 257 15 gusting 24 3.3
2014-Nov-21 21:30 264 7 gusting 17 3.3
2014-Nov-21 21:10 246 7 gusting 15 3.3
2014-Nov-21 21:00 241 9 gusting 16 3.3
2014-Nov-21 20:50 287 9 gusting 17 3.9
2014-Nov-21 20:40 267 9 gusting 23 4.4
2014-Nov-21 20:30 238 13 gusting 27 4.4
2014-Nov-21 20:20 264 12 gusting 19 4.4
2014-Nov-21 20:10 262 9 gusting 19 4.4
2014-Nov-21 20:00 240 8 gusting 15 4.4
2014-Nov-21 19:50 259 11 gusting 23 4.4
2014-Nov-21 19:40 255 13 gusting 25 5.0
2014-Nov-21 19:30 257 16 gusting 24 5.0
2014-Nov-21 19:20 261 13 gusting 25 5.6
2014-Nov-21 19:11 259 14 gusting 23 6.1
2014-Nov-21 19:00 229 13 gusting 24 6.7
2014-Nov-21 18:50 246 15 gusting 23 6.7
2014-Nov-21 18:40 266 11 gusting 18 6.7
2014-Nov-21 18:30 233 9 gusting 19 6.7
2014-Nov-21 18:11 254 12 gusting 20 7.2
2014-Nov-21 18:00 261 7 gusting 20 7.2
2014-Nov-21 17:50 253 8 gusting 20 7.2
2014-Nov-21 17:40 223 15 gusting 21 7.2
2014-Nov-21 17:30 238 11 gusting 18 7.2
2014-Nov-21 17:10 230 9 gusting 19 7.2
2014-Nov-21 17:00 243 9 gusting 19 7.2
2014-Nov-21 16:50 244 7 gusting 19 7.2
2014-Nov-21 16:40 230 8 gusting 19 7.2
2014-Nov-21 16:30 226 10 gusting 18 7.2
2014-Nov-21 16:10 240 7 gusting 15 7.2
2014-Nov-21 16:00 249 7 gusting 12 7.2
2014-Nov-21 15:50 257 7 gusting 10 7.2
2014-Nov-21 15:40 225 3 gusting 8 7.2
2014-Nov-21 15:30 261 5 gusting 9 7.2
2014-Nov-21 15:10 239 13 gusting 18 7.2
2014-Nov-21 15:00 226 13 gusting 19 7.2
2014-Nov-21 14:50 245 5 gusting 14 7.2
2014-Nov-21 14:40 211 6 gusting 17 7.2
2014-Nov-21 14:30 195 12 gusting 25 7.2
2014-Nov-21 14:10 173 14 gusting 33 7.2
2014-Nov-21 14:00 196 16 gusting 30 7.2
2014-Nov-21 13:50 173 18 gusting 31 7.2
2014-Nov-21 13:40 210 18 gusting 29 7.2
2014-Nov-21 13:31 194 15 gusting 33 7.2
2014-Nov-21 13:11 196 17 gusting 33 7.2
2014-Nov-21 13:00 185 18 gusting 34 7.2
2014-Nov-21 12:50 188 19 gusting 31 6.7
2014-Nov-21 12:40 210 21 gusting 34 6.7
2014-Nov-21 12:31 171 20 gusting 29 6.7
2014-Nov-21 12:10 182 23 gusting 34 6.7
2014-Nov-21 12:00 153 19 gusting 36 6.7
2014-Nov-21 11:40 196 23 gusting 31 6.7
2014-Nov-21 11:30 195 26 gusting 35 7.2
2014-Nov-21 11:10 205 17 gusting 29 7.2
2014-Nov-21 11:00 229 13 gusting 36 7.2
2014-Nov-21 10:50 203 13 gusting 34 7.2
2014-Nov-21 10:40 226 15 gusting 30 7.2
2014-Nov-21 10:30 235 16 gusting 33 7.2
2014-Nov-21 10:10 247 14 gusting 31 6.7
2014-Nov-21 10:00 176 21 gusting 30 6.7
2014-Nov-21 09:40 176 16 gusting 28 6.7
2014-Nov-21 09:30 237 13 gusting 28 6.7
2014-Nov-21 09:10 159 15 gusting 26 6.1
2014-Nov-21 09:00 188 18 gusting 26 6.1
2014-Nov-21 08:50 219 13 gusting 28 6.1
2014-Nov-21 08:40 192 14 gusting 25 5.6
2014-Nov-21 08:30 178 15 gusting 24 5.6
2014-Nov-21 08:10 184 15 gusting 26 5.6
2014-Nov-21 08:00 211 15 gusting 26 5.0
2014-Nov-21 07:50 161 10 gusting 25 5.0
2014-Nov-21 07:40 218 17 gusting 26 5.0
2014-Nov-21 07:30 188 16 gusting 27 5.0
2014-Nov-21 07:10 217 13 gusting 26 5.0
2014-Nov-21 07:00 169 18 gusting 28 5.0
2014-Nov-21 06:50 198 17 gusting 29 4.4
2014-Nov-21 06:40 203 16 gusting 28 4.4
2014-Nov-21 06:31 186 13 gusting 28 3.9
2014-Nov-21 06:10 190 14 gusting 24 3.3
2014-Nov-21 06:00 179 13 gusting 24 3.3
2014-Nov-21 05:50 194 12 gusting 20 3.3
2014-Nov-21 05:40 184 13 gusting 22 3.3
2014-Nov-21 05:30 175 14 gusting 22 3.3
2014-Nov-21 05:10 180 13 gusting 22 2.8
2014-Nov-21 05:00 166 15 gusting 22 2.8
2014-Nov-21 04:40 161 11 gusting 22 2.8
2014-Nov-21 04:30 207 11 gusting 24 2.2
2014-Nov-21 04:10 203 12 gusting 18 2.2
2014-Nov-21 04:00 172 10 gusting 19 1.7
2014-Nov-21 03:50 195 10 gusting 23 1.7
2014-Nov-21 03:40 184 13 gusting 21 1.7
2014-Nov-21 03:30 207 16 gusting 24 1.7
2014-Nov-21 03:10 178 11 gusting 21 1.7
2014-Nov-21 03:00 188 13 gusting 25 1.7
2014-Nov-21 02:50 161 12 gusting 20 1.7
2014-Nov-21 02:40 167 14 gusting 24 1.7
2014-Nov-21 02:30 183 14 gusting 20 1.7
2014-Nov-21 02:10 186 10 gusting 18 1.7
2014-Nov-21 02:00 185 9 gusting 15 1.7
2014-Nov-21 01:40 217 9 gusting 14 1.1
2014-Nov-21 01:30 203 7 gusting 15 1.1
2014-Nov-21 01:10 230 7 gusting 13 0.6
2014-Nov-21 01:00 225 6 gusting 10 0.6
2014-Nov-21 00:40 225 4 gusting 8 -0.0
2014-Nov-21 00:30 234 5 gusting 10 -0.0
2014-Nov-21 00:10 226 4 gusting 6 -0.0
2014-Nov-21 00:00 236 3 gusting 6 -0.6
2014-Nov-20 23:50 235 4 gusting 8 -0.0
2014-Nov-20 23:40 248 5 gusting 7 -0.0
2014-Nov-20 23:30 233 4 gusting 6 0.6
2014-Nov-20 23:10 161 7 gusting 14 1.1
2014-Nov-20 23:00 175 4 gusting 12 0.6
2014-Nov-20 22:50 219 1 gusting 2 0.6
2014-Nov-20 22:40 219 0.6
2014-Nov-20 22:30 219 3 gusting 6 1.1
2014-Nov-20 22:10 240 2 gusting 8 1.1
2014-Nov-20 22:00 250 4 gusting 8 1.1
2014-Nov-20 21:50 206 2 gusting 12 1.1
2014-Nov-20 21:40 238 2 gusting 9 1.7
2014-Nov-20 21:30 235 4 gusting 13 1.7
2014-Nov-20 21:11 219 6 gusting 14 1.7
2014-Nov-20 21:00 253 7 gusting 15 1.7
2014-Nov-20 20:50 250 7 gusting 19 1.7
2014-Nov-20 20:40 254 6 gusting 12 1.7
2014-Nov-20 20:30 262 7 gusting 22 1.7
2014-Nov-20 20:10 238 11 gusting 18 1.7
2014-Nov-20 20:00 247 9 gusting 19 2.2
2014-Nov-20 19:51 279 10 gusting 20 2.2
2014-Nov-20 19:40 260 11 gusting 18 2.2
2014-Nov-20 19:30 257 10 gusting 23 2.2
2014-Nov-20 19:10 237 14 gusting 21 2.2
2014-Nov-20 19:00 253 6 gusting 21 2.2
2014-Nov-20 18:50 254 13 gusting 24 2.2
2014-Nov-20 18:40 260 6 gusting 15 2.2
2014-Nov-20 18:30 238 8 gusting 19 2.2
2014-Nov-20 18:10 257 12 gusting 19 2.8
2014-Nov-20 18:00 222 11 gusting 21 2.8
2014-Nov-20 17:50 257 12 gusting 23 2.8
2014-Nov-20 17:40 250 9 gusting 19 2.8
2014-Nov-20 17:30 251 9 gusting 16 2.2
2014-Nov-20 17:10 234 6 gusting 22 2.8
2014-Nov-20 17:00 276 13 gusting 21 2.2
2014-Nov-20 16:40 260 15 gusting 20 2.2
2014-Nov-20 16:30 258 17 gusting 22 2.2
2014-Nov-20 16:10 245 13 gusting 21 2.2
2014-Nov-20 16:00 267 13 gusting 19 2.2
2014-Nov-20 15:50 242 13 gusting 20 2.2
2014-Nov-20 15:40 246 15 gusting 20 2.2
2014-Nov-20 15:30 246 11 gusting 17 2.2
2014-Nov-20 15:10 281 9 gusting 20 2.2
2014-Nov-20 15:00 278 13 gusting 19 1.7
2014-Nov-20 14:50 240 13 gusting 20 1.7
2014-Nov-20 14:40 250 14 gusting 19 1.7
2014-Nov-20 14:30 215 15 gusting 22 1.7
2014-Nov-20 14:10 269 6 gusting 18 1.7
2014-Nov-20 14:00 241 13 gusting 25 1.1
2014-Nov-20 13:50 243 13 gusting 20 1.1
2014-Nov-20 13:40 232 10 gusting 21 1.1
2014-Nov-20 13:30 279 13 gusting 23 1.1
2014-Nov-20 13:10 254 10 gusting 24 0.6
2014-Nov-20 13:00 210 11 gusting 29 0.6
2014-Nov-20 12:40 266 18 gusting 24 0.6
2014-Nov-20 12:30 278 15 gusting 28 0.6
2014-Nov-20 12:10 250 14 gusting 24 0.6
2014-Nov-20 12:00 265 17 gusting 26 -0.0
2014-Nov-20 11:50 230 16 gusting 26 -0.0
2014-Nov-20 11:40 279 14 gusting 26 -0.0
2014-Nov-20 11:30 250 13 gusting 24 -0.0
2014-Nov-20 11:10 279 13 gusting 25 -0.0
2014-Nov-20 11:00 244 10 gusting 20 -0.0
2014-Nov-20 10:50 267 13 gusting 23 -0.0
2014-Nov-20 10:40 257 10 gusting 22 -0.0
2014-Nov-20 10:30 294 9 gusting 22 -0.0
2014-Nov-20 10:10 264 13 gusting 24 -0.0
2014-Nov-20 10:00 260 12 gusting 22 -0.0
2014-Nov-20 09:50 264 13 gusting 20 -0.0
2014-Nov-20 09:40 258 13 gusting 21 -0.0
2014-Nov-20 09:30 252 17 gusting 26 -0.0
2014-Nov-20 09:10 270 15 gusting 26 -0.0
2014-Nov-20 09:00 229 8 gusting 28 0.6
2014-Nov-20 08:50 260 14 gusting 21 0.6
2014-Nov-20 08:40 248 13 gusting 29 0.6
2014-Nov-20 08:30 252 19 gusting 25 0.6
2014-Nov-20 08:10 245 13 gusting 27 0.6
2014-Nov-20 08:00 230 11 gusting 25 0.6
2014-Nov-20 07:50 259 12 gusting 23 0.6
2014-Nov-20 07:40 268 11 gusting 26 0.6
2014-Nov-20 07:30 244 13 gusting 25 0.6
2014-Nov-20 07:10 256 13 gusting 26 0.6
2014-Nov-20 07:00 266 13 gusting 25 0.6
2014-Nov-20 06:50 250 15 gusting 25 0.6
2014-Nov-20 06:40 261 14 gusting 25 0.6
2014-Nov-20 06:30 284 18 gusting 28 0.6
2014-Nov-20 06:10 203 13 gusting 26 0.6
2014-Nov-20 06:00 262 15 gusting 28 1.1
2014-Nov-20 05:40 269 14 gusting 30 0.6
2014-Nov-20 05:30 271 17 gusting 30 1.1
2014-Nov-20 05:10 255 19 gusting 33 1.1
2014-Nov-20 05:00 279 19 gusting 33 1.1
2014-Nov-20 04:50 238 18 gusting 26 1.1
2014-Nov-20 04:40 246 19 gusting 30 1.1
2014-Nov-20 04:30 276 18 gusting 31 1.1
2014-Nov-20 04:20 252 21 gusting 31 0.6
2014-Nov-20 04:10 271 17 gusting 33 0.6
2014-Nov-20 04:00 236 15 gusting 31 0.6
2014-Nov-20 03:50 233 18 gusting 33 0.6
2014-Nov-20 03:40 271 15 gusting 38 1.1
2014-Nov-20 03:30 249 17 gusting 28 0.6
2014-Nov-20 03:10 259 19 gusting 30 0.6
2014-Nov-20 03:00 254 17 gusting 28 0.6